EDW144R HELX-LSZH

Flight info

Callsign EDW144R
Flight time N/A
Altitude 34000
Route NABED A727 CVO L617 NOZ L551 ANTAR/N0443F360 UN133 GIKAS/N0431F320 UL608 FSK/N0384F240 N128 RUGAS/N0362F200 N128 RAXAD/N0437F360 DCT RAMAP DCT KOSIV DCT TIVNU DCT NEMEK DCT MAXUR DCT ROPUS DCT GIMIX DCT ERKIR L608 KPT DCT NEGRA
Aircraft A320/M-SDE3FGHIRWY/LB1

Departure

Time 2026-04-15 06:47
Airport Luxor International Airport (HELX)

Arrival

Time N/A
Airport Zürich Airport (LSZH)
Time Latitude Longitude Altitude Speed Heading
2026-04-15 06:26 25.67404 32.70169 332 ft 0 kts 296°
2026-04-15 06:38 25.67402 32.70175 329 ft 4 kts 296°
2026-04-15 06:38 25.67390 32.70202 329 ft 4 kts 293°
2026-04-15 06:39 25.67380 32.70230 328 ft 4 kts 290°
2026-04-15 06:39 25.67371 32.70258 329 ft 4 kts 282°
2026-04-15 06:39 25.67369 32.70287 328 ft 4 kts 254°
2026-04-15 06:39 25.67377 32.70302 330 ft 1 kts 207°
2026-04-15 06:40 25.67380 32.70304 330 ft 0 kts 207°
2026-04-15 06:42 25.67375 32.70301 329 ft 4 kts 206°
2026-04-15 06:42 25.67319 32.70270 329 ft 13 kts 206°
2026-04-15 06:42 25.67240 32.70226 329 ft 12 kts 207°
2026-04-15 06:42 25.67172 32.70187 330 ft 10 kts 207°
2026-04-15 06:43 25.67115 32.70164 332 ft 9 kts 186°
2026-04-15 06:43 25.67063 32.70222 327 ft 12 kts 117°
2026-04-15 06:43 25.67029 32.70295 329 ft 10 kts 117°
2026-04-15 06:43 25.67001 32.70355 330 ft 8 kts 117°
2026-04-15 06:44 25.66932 32.70381 331 ft 17 kts 198°
2026-04-15 06:44 25.66849 32.70344 331 ft 20 kts 202°
2026-04-15 06:44 25.66672 32.70262 330 ft 21 kts 202°
2026-04-15 06:44 25.66536 32.70199 330 ft 22 kts 202°
2026-04-15 06:45 25.66444 32.70157 329 ft 22 kts 202°
2026-04-15 06:45 25.66300 32.70091 331 ft 23 kts 202°
2026-04-15 06:45 25.66158 32.70024 329 ft 15 kts 202°
2026-04-15 06:45 25.66071 32.70037 330 ft 13 kts 119°
2026-04-15 06:46 25.66046 32.70124 332 ft 11 kts 84°
2026-04-15 06:46 25.66085 32.70171 333 ft 7 kts 24°
2026-04-15 06:46 25.66182 32.70215 331 ft 40 kts 22°
2026-04-15 06:46 25.66671 32.70442 330 ft 108 kts 22°
2026-04-15 06:47 25.67538 32.70842 333 ft 160 kts 22°
2026-04-15 06:47 25.68646 32.71346 696 ft 174 kts 21°
2026-04-15 06:47 25.69772 32.71857 1386 ft 174 kts 23°
2026-04-15 06:47 25.70914 32.72378 1823 ft 185 kts 19°
2026-04-15 06:48 25.72235 32.72446 2006 ft 206 kts 344°
2026-04-15 06:48 25.73665 32.71902 2171 ft 230 kts 343°
2026-04-15 06:48 25.75294 32.71427 2415 ft 254 kts 347°
2026-04-15 06:48 25.77084 32.70977 2838 ft 272 kts 348°
2026-04-15 06:49 25.78948 32.70516 3530 ft 278 kts 348°
2026-04-15 06:49 25.80848 32.70033 4248 ft 282 kts 348°
2026-04-15 06:49 25.82768 32.69528 4991 ft 285 kts 348°
2026-04-15 06:50 25.86667 32.68474 6453 ft 291 kts 349°
2026-04-15 06:50 25.88647 32.67930 7136 ft 295 kts 349°
2026-04-15 06:50 25.90648 32.67380 7830 ft 298 kts 348°
2026-04-15 06:50 25.92664 32.66827 8531 ft 301 kts 348°
2026-04-15 06:51 25.94709 32.66263 9253 ft 303 kts 347°
2026-04-15 06:51 25.96764 32.65695 9942 ft 306 kts 347°
2026-04-15 06:51 25.98888 32.65108 10223 ft 325 kts 346°
2026-04-15 06:51 26.01151 32.64484 10339 ft 347 kts 346°
2026-04-15 06:52 26.03544 32.63822 10725 ft 358 kts 346°
2026-04-15 06:52 26.05981 32.63147 11247 ft 364 kts 346°
2026-04-15 06:52 26.08416 32.62474 11837 ft 367 kts 346°
2026-04-15 06:52 26.10898 32.61788 12472 ft 368 kts 345°
2026-04-15 06:53 26.13389 32.61098 13115 ft 369 kts 345°
2026-04-15 06:53 26.15894 32.60404 13730 ft 371 kts 344°
2026-04-15 06:53 26.18410 32.59708 14263 ft 374 kts 344°
2026-04-15 06:53 26.20942 32.59008 14799 ft 376 kts 344°
2026-04-15 06:54 26.23489 32.58303 15325 ft 378 kts 344°
2026-04-15 06:54 26.26052 32.57591 15850 ft 381 kts 343°
2026-04-15 06:54 26.28632 32.56875 16359 ft 383 kts 343°
2026-04-15 06:54 26.31229 32.56155 16888 ft 386 kts 343°
2026-04-15 06:55 26.33845 32.55430 17374 ft 389 kts 343°
2026-04-15 06:55 26.36479 32.54699 17873 ft 392 kts 343°
2026-04-15 06:55 26.39096 32.53971 18350 ft 394 kts 343°
2026-04-15 06:55 26.41766 32.53229 18759 ft 397 kts 343°
2026-04-15 06:56 26.44453 32.52483 19198 ft 399 kts 343°
2026-04-15 06:56 26.47161 32.51732 19622 ft 401 kts 343°
2026-04-15 06:56 26.49877 32.50975 20036 ft 403 kts 343°
2026-04-15 06:56 26.52602 32.50217 20452 ft 405 kts 343°
2026-04-15 06:57 26.55354 32.49454 20856 ft 408 kts 343°
2026-04-15 06:57 26.58114 32.48687 21271 ft 410 kts 343°
2026-04-15 06:57 26.60888 32.47912 21677 ft 412 kts 342°
2026-04-15 06:57 26.63677 32.47131 22078 ft 414 kts 342°
2026-04-15 06:58 26.66481 32.46347 22470 ft 417 kts 342°
2026-04-15 06:58 26.69301 32.45558 22850 ft 419 kts 342°
2026-04-15 06:58 26.72135 32.44764 23237 ft 421 kts 342°
2026-04-15 06:58 26.74985 32.43966 23606 ft 423 kts 342°
2026-04-15 06:59 26.77850 32.43166 23922 ft 425 kts 342°
2026-04-15 06:59 26.80718 32.42366 24252 ft 427 kts 342°
2026-04-15 06:59 26.83605 32.41562 24581 ft 428 kts 342°
2026-04-15 06:59 26.86498 32.40753 24928 ft 429 kts 341°
2026-04-15 07:00 26.89397 32.39942 25254 ft 430 kts 341°
2026-04-15 07:00 26.92304 32.39130 25573 ft 431 kts 341°
2026-04-15 07:00 26.95219 32.38311 25898 ft 432 kts 341°
2026-04-15 07:00 26.98141 32.37484 26226 ft 433 kts 341°
2026-04-15 07:01 27.01066 32.36657 26541 ft 435 kts 341°
2026-04-15 07:01 27.04008 32.35829 26851 ft 436 kts 340°
2026-04-15 07:01 27.06954 32.35002 27161 ft 437 kts 340°
2026-04-15 07:01 27.09910 32.34172 27469 ft 439 kts 340°
2026-04-15 07:02 27.12879 32.33336 27745 ft 441 kts 340°
2026-04-15 07:02 27.15862 32.32496 28055 ft 442 kts 340°
2026-04-15 07:02 27.18852 32.31652 28341 ft 444 kts 340°
2026-04-15 07:02 27.21856 32.30805 28634 ft 445 kts 340°
2026-04-15 07:03 27.24821 32.29971 28911 ft 446 kts 340°
2026-04-15 07:03 27.27834 32.29124 29173 ft 447 kts 339°
2026-04-15 07:03 27.30856 32.28270 29436 ft 448 kts 339°
2026-04-15 07:03 27.33876 32.27368 29693 ft 448 kts 338°
2026-04-15 07:04 27.36884 32.26418 29950 ft 449 kts 337°
2026-04-15 07:04 27.39886 32.25444 30167 ft 450 kts 337°
2026-04-15 07:04 27.42893 32.24459 30456 ft 450 kts 338°
2026-04-15 07:04 27.45908 32.23475 30630 ft 452 kts 338°
2026-04-15 07:05 27.48933 32.22500 30849 ft 452 kts 338°
2026-04-15 07:05 27.51965 32.21537 31128 ft 452 kts 338°
2026-04-15 07:05 27.54989 32.20582 31432 ft 450 kts 338°
2026-04-15 07:05 27.57999 32.19632 31741 ft 449 kts 338°
2026-04-15 07:06 27.61001 32.18684 32042 ft 447 kts 338°
2026-04-15 07:06 27.63996 32.17735 32348 ft 446 kts 338°
2026-04-15 07:06 27.66985 32.16786 32657 ft 445 kts 338°
2026-04-15 07:06 27.69919 32.15851 32966 ft 443 kts 338°
2026-04-15 07:07 27.72918 32.14892 33259 ft 442 kts 338°
2026-04-15 07:07 27.75834 32.13959 33549 ft 441 kts 338°
2026-04-15 07:07 27.78823 32.13005 33851 ft 439 kts 338°
2026-04-15 07:07 27.81757 32.12070 34118 ft 438 kts 338°
2026-04-15 07:08 27.84654 32.11148 34382 ft 437 kts 337°
2026-04-15 07:08 27.87575 32.10216 34640 ft 435 kts 337°
2026-04-15 07:08 27.90478 32.09289 34894 ft 434 kts 337°
2026-04-15 07:08 27.93377 32.08361 35111 ft 433 kts 336°
2026-04-15 07:09 27.96277 32.07434 35340 ft 431 kts 336°
2026-04-15 07:09 27.99160 32.06512 35580 ft 431 kts 336°
2026-04-15 07:09 28.02052 32.05586 35728 ft 431 kts 336°
2026-04-15 07:09 28.04942 32.04660 35914 ft 431 kts 336°
2026-04-15 07:10 28.10676 32.02855 36011 ft 430 kts 336°
2026-04-15 07:10 28.16470 32.01050 36011 ft 429 kts 336°
2026-04-15 07:11 28.22187 31.99268 36008 ft 428 kts 336°
2026-04-15 07:11 28.27935 31.97460 36005 ft 430 kts 336°
2026-04-15 07:12 28.33712 31.95633 36002 ft 431 kts 336°
2026-04-15 07:12 28.39495 31.93814 36002 ft 431 kts 336°
2026-04-15 07:13 28.45277 31.92001 36000 ft 431 kts 336°
2026-04-15 07:13 28.51058 31.90179 36000 ft 431 kts 336°
2026-04-15 07:14 28.56846 31.88340 35996 ft 432 kts 337°
2026-04-15 07:14 28.62647 31.86511 35983 ft 433 kts 337°
2026-04-15 07:15 28.68456 31.84679 35984 ft 433 kts 337°
2026-04-15 07:15 28.74263 31.82837 35975 ft 434 kts 336°
2026-04-15 07:16 28.80088 31.80988 36006 ft 434 kts 337°
2026-04-15 07:16 28.85914 31.79143 36010 ft 435 kts 337°
2026-04-15 07:17 28.91743 31.77280 36001 ft 434 kts 337°
2026-04-15 07:17 28.97564 31.75416 35999 ft 435 kts 337°
2026-04-15 07:18 29.03386 31.73548 35989 ft 435 kts 337°
2026-04-15 07:18 29.09217 31.71664 35995 ft 436 kts 337°
2026-04-15 07:19 29.15019 31.69776 35983 ft 437 kts 337°
2026-04-15 07:19 29.20865 31.67876 35977 ft 438 kts 337°
2026-04-15 07:20 29.26728 31.65972 35977 ft 438 kts 337°
2026-04-15 07:20 29.32599 31.64059 35981 ft 439 kts 337°
2026-04-15 07:21 29.38471 31.62149 35986 ft 439 kts 337°
2026-04-15 07:21 29.44343 31.60246 35986 ft 439 kts 337°
2026-04-15 07:22 29.50224 31.58330 35989 ft 439 kts 337°
2026-04-15 07:22 29.56115 31.56397 35991 ft 439 kts 337°
2026-04-15 07:23 29.61980 31.54469 36003 ft 440 kts 337°
2026-04-15 07:23 29.67875 31.52537 35987 ft 441 kts 337°
2026-04-15 07:24 29.73789 31.50600 35982 ft 442 kts 337°
2026-04-15 07:24 29.79714 31.48641 35980 ft 443 kts 337°
2026-04-15 07:25 29.85620 31.46681 35981 ft 443 kts 337°
2026-04-15 07:25 29.91528 31.44724 35996 ft 444 kts 337°
2026-04-15 07:26 29.97470 31.42755 35979 ft 445 kts 337°
2026-04-15 07:26 30.03434 31.40782 35976 ft 445 kts 337°
2026-04-15 07:27 30.09111 31.38207 35977 ft 433 kts 323°
2026-04-15 07:27 30.13766 31.33983 35974 ft 422 kts 310°
2026-04-15 07:28 30.18068 31.29345 35985 ft 423 kts 311°
2026-04-15 07:28 30.22379 31.24731 35978 ft 423 kts 311°
2026-04-15 07:29 30.26692 31.20095 35986 ft 424 kts 311°
2026-04-15 07:29 30.31019 31.15442 35978 ft 424 kts 311°
2026-04-15 07:30 30.35304 31.10822 35957 ft 424 kts 311°
2026-04-15 07:30 30.39616 31.06161 35973 ft 424 kts 311°
2026-04-15 07:31 30.43921 31.01502 35975 ft 424 kts 311°
2026-04-15 07:31 30.48233 30.96830 35975 ft 424 kts 311°
2026-04-15 07:32 30.52547 30.92146 36000 ft 424 kts 310°
2026-04-15 07:32 30.56855 30.87472 35999 ft 424 kts 310°
2026-04-15 07:33 30.61146 30.82822 35990 ft 424 kts 310°
2026-04-15 07:33 30.65450 30.78139 35984 ft 424 kts 310°
2026-04-15 07:34 30.69023 30.74245 35991 ft 424 kts 310°
2026-04-15 07:34 30.73317 30.69557 35992 ft 423 kts 310°
2026-04-15 07:35 30.77607 30.64862 35985 ft 423 kts 310°
2026-04-15 07:35 30.81901 30.60168 35983 ft 423 kts 310°
2026-04-15 07:36 30.86190 30.55476 35999 ft 423 kts 310°
2026-04-15 07:36 30.90475 30.50773 36000 ft 423 kts 310°
2026-04-15 07:37 30.94756 30.46076 35996 ft 423 kts 310°
2026-04-15 07:37 30.99041 30.41369 35995 ft 423 kts 310°
2026-04-15 07:38 31.03315 30.36659 36002 ft 423 kts 310°
2026-04-15 07:38 31.07468 30.31839 35999 ft 417 kts 302°
2026-04-15 07:39 31.10291 30.26110 35994 ft 402 kts 285°
2026-04-15 07:39 31.12001 30.19911 35987 ft 401 kts 283°
2026-04-15 07:40 31.13687 30.13722 35983 ft 401 kts 283°
2026-04-15 07:40 31.15374 30.07517 36000 ft 401 kts 282°
2026-04-15 07:41 31.17063 30.01307 35990 ft 402 kts 284°
2026-04-15 07:41 31.18221 29.98308 36011 ft 409 kts 295°
2026-04-15 07:41 31.19894 29.95588 36008 ft 417 kts 306°
2026-04-15 07:42 31.22043 29.93267 36006 ft 427 kts 317°
2026-04-15 07:42 31.24572 29.91455 36002 ft 436 kts 324°
2026-04-15 07:42 31.29925 29.88120 36005 ft 436 kts 324°
2026-04-15 07:43 31.35277 29.84776 35996 ft 436 kts 324°
2026-04-15 07:43 31.40641 29.81414 36014 ft 437 kts 324°
2026-04-15 07:44 31.45992 29.78054 36019 ft 437 kts 324°
2026-04-15 07:44 31.51352 29.74684 36018 ft 437 kts 324°
2026-04-15 07:45 31.56711 29.71317 36034 ft 436 kts 324°
2026-04-15 07:45 31.62058 29.67950 36031 ft 436 kts 324°
2026-04-15 07:46 31.67404 29.64580 36038 ft 436 kts 324°
2026-04-15 07:46 31.72718 29.61228 36034 ft 436 kts 324°
2026-04-15 07:47 31.78062 29.57859 36037 ft 436 kts 324°
2026-04-15 07:47 31.83400 29.54474 36063 ft 436 kts 324°
2026-04-15 07:48 31.88733 29.51088 36071 ft 435 kts 324°
2026-04-15 07:48 31.94066 29.47700 36054 ft 435 kts 324°
2026-04-15 07:49 31.99395 29.44308 36053 ft 435 kts 324°
2026-04-15 07:49 32.04724 29.40921 36053 ft 436 kts 324°
2026-04-15 07:50 32.10067 29.37529 36054 ft 435 kts 324°
2026-04-15 07:50 32.15396 29.34129 36070 ft 435 kts 324°
2026-04-15 07:51 32.20727 29.30717 36066 ft 436 kts 324°
2026-04-15 07:51 32.26056 29.27310 36068 ft 436 kts 324°
2026-04-15 07:52 32.31349 29.23919 36080 ft 435 kts 324°
2026-04-15 07:52 32.36671 29.20495 36075 ft 435 kts 324°
2026-04-15 07:53 32.41996 29.17072 36069 ft 435 kts 324°
2026-04-15 07:53 32.47313 29.13651 36065 ft 435 kts 324°
2026-04-15 07:54 32.52639 29.10223 36062 ft 435 kts 324°
2026-04-15 07:54 32.57961 29.06785 36060 ft 435 kts 324°
2026-04-15 07:55 32.63276 29.03340 36062 ft 435 kts 324°
2026-04-15 07:56 32.71247 28.98189 36071 ft 435 kts 324°
2026-04-15 07:56 32.76562 28.94740 36087 ft 435 kts 324°
2026-04-15 07:57 32.81869 28.91287 36073 ft 435 kts 324°
2026-04-15 07:57 32.87180 28.87823 36072 ft 435 kts 324°
2026-04-15 07:58 32.92501 28.84361 36058 ft 435 kts 324°
2026-04-15 07:58 32.97808 28.80900 36068 ft 436 kts 325°
2026-04-15 07:59 33.03126 28.77433 36067 ft 436 kts 325°
2026-04-15 07:59 33.08413 28.73972 36066 ft 436 kts 325°
2026-04-15 08:00 33.13731 28.70489 36067 ft 436 kts 325°
2026-04-15 08:00 33.19051 28.67006 36071 ft 436 kts 325°
2026-04-15 08:01 33.24380 28.63514 36099 ft 437 kts 325°
2026-04-15 08:01 33.29711 28.60005 36085 ft 437 kts 325°
2026-04-15 08:02 33.35036 28.56493 36081 ft 438 kts 325°
2026-04-15 08:02 33.40371 28.52967 36084 ft 438 kts 325°
2026-04-15 08:03 33.45711 28.49445 36083 ft 438 kts 325°
2026-04-15 08:03 33.51053 28.45918 36084 ft 438 kts 325°
2026-04-15 08:04 33.56385 28.42383 36092 ft 438 kts 325°
2026-04-15 08:04 33.61721 28.38835 36091 ft 438 kts 326°
2026-04-15 08:05 33.67026 28.35313 36106 ft 438 kts 326°
2026-04-15 08:05 33.72369 28.31769 36097 ft 439 kts 326°
2026-04-15 08:06 33.77708 28.28215 36087 ft 439 kts 326°
2026-04-15 08:06 33.83038 28.24647 36099 ft 439 kts 326°
2026-04-15 08:07 33.88361 28.21055 36094 ft 439 kts 325°
2026-04-15 08:07 33.93682 28.17447 36095 ft 439 kts 325°
2026-04-15 08:08 33.99000 28.13846 36089 ft 439 kts 325°
2026-04-15 08:08 34.04321 28.10235 36092 ft 439 kts 325°
2026-04-15 08:09 34.09655 28.06617 36116 ft 439 kts 326°
2026-04-15 08:09 34.14986 28.03001 36102 ft 440 kts 325°
2026-04-15 08:10 34.20317 27.99371 36095 ft 440 kts 325°
2026-04-15 08:10 34.25616 27.95754 36095 ft 440 kts 325°
2026-04-15 08:11 34.30951 27.92102 36095 ft 441 kts 325°
2026-04-15 08:11 34.36301 27.88449 36110 ft 441 kts 326°
2026-04-15 08:12 34.41638 27.84802 36103 ft 441 kts 326°
2026-04-15 08:12 34.46989 27.81137 36095 ft 442 kts 325°
2026-04-15 08:13 34.52343 27.77455 36095 ft 442 kts 325°
2026-04-15 08:13 34.57688 27.73767 36100 ft 442 kts 325°
2026-04-15 08:14 34.63033 27.70075 36107 ft 442 kts 325°
2026-04-15 08:14 34.68374 27.66372 36098 ft 442 kts 325°
2026-04-15 08:15 34.73726 27.62661 36102 ft 443 kts 325°
2026-04-15 08:15 34.79046 27.58966 36106 ft 443 kts 325°
2026-04-15 08:16 34.84406 27.55246 36105 ft 443 kts 325°
2026-04-15 08:16 34.89765 27.51519 36104 ft 443 kts 325°
2026-04-15 08:17 34.95117 27.47785 36109 ft 444 kts 325°
2026-04-15 08:17 35.00476 27.44041 36119 ft 444 kts 325°
2026-04-15 08:18 35.05843 27.40285 36118 ft 444 kts 325°
2026-04-15 08:18 35.11202 27.36526 36114 ft 444 kts 325°
2026-04-15 08:19 35.16555 27.32770 36111 ft 444 kts 325°
2026-04-15 08:19 35.21907 27.29010 36111 ft 444 kts 325°
2026-04-15 08:20 35.27223 27.25267 36113 ft 444 kts 325°
2026-04-15 08:20 35.32578 27.21493 36112 ft 443 kts 325°
2026-04-15 08:21 35.37020 27.18351 36102 ft 443 kts 325°
2026-04-15 08:21 35.42384 27.14603 36104 ft 446 kts 329°
2026-04-15 08:22 35.48029 27.11415 36105 ft 447 kts 330°
2026-04-15 08:22 35.53695 27.08236 36102 ft 448 kts 330°
2026-04-15 08:23 35.59358 27.05050 36101 ft 448 kts 330°
2026-04-15 08:23 35.65028 27.01849 36106 ft 448 kts 330°
2026-04-15 08:24 35.70653 26.98665 36111 ft 448 kts 330°
2026-04-15 08:24 35.76316 26.95459 36125 ft 448 kts 330°
2026-04-15 08:25 35.81977 26.92248 36123 ft 448 kts 330°
2026-04-15 08:25 35.87639 26.89034 36124 ft 448 kts 330°
2026-04-15 08:26 35.93296 26.85793 36127 ft 448 kts 330°
2026-04-15 08:26 35.98945 26.82546 36137 ft 448 kts 330°
2026-04-15 08:27 36.04594 26.79311 36133 ft 447 kts 330°
2026-04-15 08:27 36.10245 26.76065 36130 ft 447 kts 330°
2026-04-15 08:28 36.15873 26.72824 36126 ft 447 kts 330°
2026-04-15 08:28 36.21513 26.69575 36122 ft 446 kts 330°
2026-04-15 08:29 36.27107 26.66341 36125 ft 447 kts 330°
2026-04-15 08:29 36.32740 26.63083 36118 ft 447 kts 330°
2026-04-15 08:30 36.38374 26.59816 36119 ft 447 kts 329°
2026-04-15 08:30 36.43996 26.56545 36119 ft 447 kts 330°
2026-04-15 08:31 36.49645 26.53260 36127 ft 448 kts 330°
2026-04-15 08:31 36.55285 26.49979 36122 ft 448 kts 330°
2026-04-15 08:32 36.60933 26.46684 36121 ft 449 kts 330°
2026-04-15 08:32 36.66584 26.43371 36116 ft 449 kts 330°
2026-04-15 08:33 36.72242 26.40061 36118 ft 449 kts 330°
2026-04-15 08:33 36.77901 26.36739 36130 ft 449 kts 329°
2026-04-15 08:34 36.83521 26.33425 36117 ft 450 kts 330°
2026-04-15 08:34 36.89181 26.30090 36123 ft 450 kts 330°
2026-04-15 08:35 36.94853 26.26751 36122 ft 450 kts 330°
2026-04-15 08:35 37.00509 26.23401 36122 ft 451 kts 329°
2026-04-15 08:36 37.06152 26.19959 36116 ft 451 kts 329°
2026-04-15 08:36 37.11783 26.16491 36114 ft 452 kts 329°
2026-04-15 08:37 37.17445 26.13016 36110 ft 452 kts 329°
2026-04-15 08:37 37.23103 26.09544 36113 ft 453 kts 329°
2026-04-15 08:38 37.28760 26.06078 36127 ft 453 kts 329°
2026-04-15 08:38 37.34421 26.02613 36129 ft 452 kts 329°
2026-04-15 08:39 37.40075 25.99136 36129 ft 452 kts 329°
2026-04-15 08:39 37.45723 25.95648 36132 ft 452 kts 329°
2026-04-15 08:40 37.51370 25.92155 36143 ft 452 kts 329°
2026-04-15 08:40 37.56984 25.88673 36139 ft 453 kts 329°
2026-04-15 08:41 37.62639 25.85166 36137 ft 453 kts 329°
2026-04-15 08:41 37.68296 25.81656 36134 ft 453 kts 329°
2026-04-15 08:42 37.73945 25.78144 36136 ft 453 kts 329°
2026-04-15 08:42 37.79599 25.74621 36139 ft 453 kts 329°
2026-04-15 08:43 37.85250 25.71084 36143 ft 453 kts 328°
2026-04-15 08:43 37.90899 25.67540 36144 ft 453 kts 328°
2026-04-15 08:44 37.96504 25.64031 36162 ft 453 kts 329°
2026-04-15 08:44 38.02157 25.60488 36157 ft 454 kts 328°
2026-04-15 08:45 38.07830 25.56927 36138 ft 454 kts 328°
2026-04-15 08:45 38.13497 25.53357 36142 ft 455 kts 328°
2026-04-15 08:46 38.19155 25.49781 36149 ft 455 kts 328°
2026-04-15 08:46 38.24833 25.46193 36153 ft 455 kts 328°
2026-04-15 08:47 38.30506 25.42606 36155 ft 455 kts 328°
2026-04-15 08:47 38.36168 25.39006 36168 ft 455 kts 328°
2026-04-15 08:48 38.41831 25.35402 36170 ft 455 kts 328°
2026-04-15 08:48 38.47510 25.31791 36182 ft 455 kts 328°
2026-04-15 08:49 38.53172 25.28188 36187 ft 455 kts 328°
2026-04-15 08:49 38.58849 25.24564 36191 ft 454 kts 328°
2026-04-15 08:50 38.64498 25.20942 36196 ft 454 kts 328°
2026-04-15 08:50 38.70133 25.17321 36188 ft 453 kts 328°
2026-04-15 08:51 38.75739 25.13717 36200 ft 453 kts 328°
2026-04-15 08:51 38.81367 25.10104 36200 ft 452 kts 328°
2026-04-15 08:52 38.86993 25.06474 36196 ft 452 kts 327°
2026-04-15 08:52 38.92606 25.02846 36195 ft 452 kts 328°
2026-04-15 08:53 38.98217 24.99216 36213 ft 451 kts 328°
2026-04-15 08:53 39.03817 24.95585 36220 ft 450 kts 327°
2026-04-15 08:54 39.09400 24.91960 36214 ft 449 kts 327°
2026-04-15 08:54 39.15001 24.88400 36210 ft 449 kts 328°
2026-04-15 08:55 39.20611 24.84957 36208 ft 449 kts 329°
2026-04-15 08:55 39.26295 24.81488 36215 ft 449 kts 328°
2026-04-15 08:56 39.31887 24.78020 36214 ft 448 kts 328°
2026-04-15 08:56 39.37501 24.74507 36215 ft 448 kts 328°
2026-04-15 08:57 39.43112 24.70997 36210 ft 448 kts 328°
2026-04-15 08:57 39.48722 24.67466 36217 ft 446 kts 325°
2026-04-15 08:58 39.53712 24.62908 36219 ft 437 kts 315°
2026-04-15 08:58 39.60877 24.55603 36224 ft 437 kts 316°
2026-04-15 08:59 39.65653 24.50737 36225 ft 436 kts 316°
2026-04-15 08:59 39.70397 24.45890 36223 ft 436 kts 316°
2026-04-15 09:00 39.75159 24.41007 36228 ft 436 kts 315°
2026-04-15 09:00 39.79914 24.36117 36247 ft 435 kts 315°
2026-04-15 09:01 39.84657 24.31243 36243 ft 434 kts 315°
2026-04-15 09:01 39.89391 24.26364 36238 ft 433 kts 315°
2026-04-15 09:02 39.94113 24.21490 36236 ft 433 kts 315°
2026-04-15 09:02 39.98838 24.16604 36232 ft 433 kts 315°
2026-04-15 09:03 40.03552 24.11727 36241 ft 432 kts 315°
2026-04-15 09:03 40.08262 24.06848 36254 ft 432 kts 315°
2026-04-15 09:04 40.12959 24.01961 36239 ft 432 kts 315°
2026-04-15 09:04 40.17658 23.97069 36220 ft 432 kts 315°
2026-04-15 09:05 40.22355 23.92155 36215 ft 432 kts 315°
2026-04-15 09:05 40.27054 23.87245 36219 ft 432 kts 315°
2026-04-15 09:06 40.31764 23.82330 36217 ft 432 kts 315°
2026-04-15 09:06 40.36427 23.77437 36227 ft 432 kts 315°
2026-04-15 09:07 40.41118 23.72489 36226 ft 433 kts 315°
2026-04-15 09:07 40.45826 23.67536 36215 ft 433 kts 315°
2026-04-15 09:08 40.50537 23.62575 36208 ft 434 kts 315°
2026-04-15 09:08 40.54477 23.58410 36223 ft 434 kts 315°
2026-04-15 09:09 40.59138 23.53472 36227 ft 433 kts 315°
2026-04-15 09:09 40.63831 23.48497 36225 ft 432 kts 315°
2026-04-15 09:10 40.68507 23.43522 36229 ft 432 kts 315°
2026-04-15 09:10 40.73181 23.38546 36222 ft 432 kts 315°
2026-04-15 09:11 40.77866 23.33546 36215 ft 432 kts 315°
2026-04-15 09:11 40.82539 23.28559 36228 ft 433 kts 316°
2026-04-15 09:12 40.87221 23.23550 36227 ft 432 kts 316°
2026-04-15 09:12 40.91888 23.18542 36220 ft 432 kts 316°
2026-04-15 09:13 40.96529 23.13555 36218 ft 432 kts 316°
2026-04-15 09:13 41.01220 23.08507 36221 ft 432 kts 316°
2026-04-15 09:14 41.05861 23.03492 36215 ft 433 kts 316°
2026-04-15 09:14 41.10593 22.98524 36212 ft 436 kts 322°
2026-04-15 09:15 41.15689 22.94122 36206 ft 437 kts 322°
2026-04-15 09:15 41.20801 22.89714 36210 ft 438 kts 322°
2026-04-15 09:16 41.25900 22.85288 36210 ft 438 kts 322°
2026-04-15 09:16 41.31002 22.80850 36216 ft 438 kts 322°
2026-04-15 09:17 41.36364 22.76930 36227 ft 442 kts 330°
2026-04-15 09:17 41.41904 22.73351 36217 ft 442 kts 330°
2026-04-15 09:18 41.47438 22.69766 36210 ft 442 kts 330°
2026-04-15 09:18 41.52974 22.66166 36210 ft 443 kts 330°
2026-04-15 09:19 41.58510 22.62555 36207 ft 443 kts 330°
2026-04-15 09:19 41.64045 22.58947 36190 ft 443 kts 330°
2026-04-15 09:20 41.69585 22.55321 36194 ft 443 kts 330°
2026-04-15 09:20 41.75116 22.51689 36201 ft 443 kts 330°
2026-04-15 09:21 41.80618 22.48075 36209 ft 443 kts 330°
2026-04-15 09:21 41.86152 22.44436 36201 ft 443 kts 330°
2026-04-15 09:22 41.91680 22.40804 36196 ft 443 kts 330°
2026-04-15 09:22 41.97220 22.37176 36193 ft 444 kts 333°
2026-04-15 09:23 42.03137 22.34679 36192 ft 447 kts 341°
2026-04-15 09:23 42.09136 22.32441 36189 ft 447 kts 341°
2026-04-15 09:24 42.15132 22.30196 36186 ft 448 kts 341°
2026-04-15 09:24 42.21141 22.27946 36198 ft 448 kts 341°
2026-04-15 09:25 42.27134 22.25664 36197 ft 446 kts 338°
2026-04-15 09:25 42.32603 22.21979 36191 ft 437 kts 320°
2026-04-15 09:26 42.37215 22.16703 36179 ft 434 kts 315°
2026-04-15 09:26 42.41717 22.11337 36182 ft 434 kts 315°
2026-04-15 09:27 42.46264 22.05920 36176 ft 435 kts 316°
2026-04-15 09:27 42.50801 22.00496 36171 ft 435 kts 316°
2026-04-15 09:28 42.55335 21.95041 36165 ft 436 kts 315°
2026-04-15 09:28 42.59872 21.89579 36165 ft 436 kts 316°
2026-04-15 09:29 42.64381 21.84157 36167 ft 436 kts 316°
2026-04-15 09:29 42.68921 21.78687 36170 ft 436 kts 316°
2026-04-15 09:30 42.73453 21.73199 36164 ft 437 kts 315°
2026-04-15 09:30 42.77991 21.67698 36163 ft 437 kts 315°
2026-04-15 09:31 42.82538 21.62183 36163 ft 437 kts 315°
2026-04-15 09:31 42.87079 21.56657 36165 ft 437 kts 315°
2026-04-15 09:32 42.91614 21.51124 36167 ft 437 kts 315°
2026-04-15 09:32 42.96151 21.45582 36171 ft 437 kts 316°
2026-04-15 09:33 43.00683 21.40050 36171 ft 437 kts 316°
2026-04-15 09:33 43.05209 21.34504 36169 ft 437 kts 315°
2026-04-15 09:34 43.09698 21.28976 36168 ft 436 kts 315°
2026-04-15 09:34 43.14202 21.23413 36172 ft 436 kts 315°
2026-04-15 09:35 43.18717 21.17843 36158 ft 437 kts 315°
2026-04-15 09:35 43.23226 21.12272 36172 ft 436 kts 315°
2026-04-15 09:36 43.27723 21.06701 36173 ft 435 kts 315°
2026-04-15 09:36 43.32208 21.01131 36169 ft 435 kts 315°
2026-04-15 09:37 43.36661 20.95581 36168 ft 434 kts 315°
2026-04-15 09:37 43.41125 20.89994 36163 ft 433 kts 313°
2026-04-15 09:38 43.44971 20.83667 36160 ft 431 kts 306°
2026-04-15 09:38 43.48673 20.77180 36160 ft 430 kts 306°
2026-04-15 09:39 43.52365 20.70695 36159 ft 430 kts 306°
2026-04-15 09:39 43.56052 20.64201 36154 ft 430 kts 306°
2026-04-15 09:40 43.59742 20.57705 36171 ft 430 kts 306°
2026-04-15 09:40 43.63425 20.51208 36170 ft 429 kts 306°
2026-04-15 09:41 43.67099 20.44704 36149 ft 430 kts 306°
2026-04-15 09:41 43.70777 20.38183 36148 ft 430 kts 306°
2026-04-15 09:42 43.74450 20.31650 36152 ft 431 kts 306°
2026-04-15 09:42 43.78125 20.25092 36154 ft 430 kts 306°
2026-04-15 09:43 43.81785 20.18541 36163 ft 430 kts 306°
2026-04-15 09:43 43.85445 20.11989 36160 ft 430 kts 306°
2026-04-15 09:44 43.89080 20.05461 36159 ft 430 kts 306°
2026-04-15 09:44 43.92738 19.98884 36158 ft 430 kts 306°
2026-04-15 09:45 43.96394 19.92307 36162 ft 430 kts 306°
2026-04-15 09:45 44.00047 19.85710 36159 ft 430 kts 306°
2026-04-15 09:46 44.03421 19.78879 36166 ft 428 kts 295°
2026-04-15 09:46 44.06058 19.71463 36164 ft 427 kts 295°
2026-04-15 09:47 44.08708 19.64073 36159 ft 427 kts 295°
2026-04-15 09:47 44.11354 19.56672 36158 ft 427 kts 295°
2026-04-15 09:48 44.13995 19.49245 36154 ft 428 kts 295°
2026-04-15 09:48 44.16623 19.41811 36153 ft 428 kts 295°
2026-04-15 09:49 44.19247 19.34375 36158 ft 428 kts 295°
2026-04-15 09:49 44.21869 19.26930 36166 ft 428 kts 295°
2026-04-15 09:50 44.24485 19.19480 36164 ft 428 kts 295°
2026-04-15 09:50 44.27085 19.12059 36161 ft 428 kts 295°
2026-04-15 09:51 44.29690 19.04590 36160 ft 428 kts 294°
2026-04-15 09:51 44.32299 18.97106 36162 ft 428 kts 295°
2026-04-15 09:52 44.34907 18.89628 36165 ft 428 kts 294°
2026-04-15 09:52 44.37502 18.82133 36168 ft 428 kts 294°
2026-04-15 09:53 44.40092 18.74624 36182 ft 429 kts 294°
2026-04-15 09:53 44.42678 18.67109 36187 ft 428 kts 294°
2026-04-15 09:54 44.45264 18.59604 36191 ft 428 kts 294°
2026-04-15 09:54 44.47841 18.52087 36190 ft 428 kts 294°
2026-04-15 09:55 44.50388 18.44615 36191 ft 427 kts 294°
2026-04-15 09:55 44.52944 18.37098 36189 ft 427 kts 294°
2026-04-15 09:56 44.55088 18.30790 36188 ft 427 kts 294°
2026-04-15 09:57 44.58902 18.19550 36187 ft 427 kts 294°
2026-04-15 09:57 44.61440 18.12015 36186 ft 427 kts 294°
2026-04-15 09:58 44.63973 18.04476 36186 ft 427 kts 293°
2026-04-15 09:58 44.66507 17.96922 36191 ft 427 kts 293°
2026-04-15 09:59 44.69037 17.89366 36191 ft 427 kts 293°
2026-04-15 09:59 44.71560 17.81798 36188 ft 427 kts 293°
2026-04-15 10:00 44.74082 17.74236 36187 ft 427 kts 293°
2026-04-15 10:00 44.76598 17.66657 36199 ft 427 kts 292°
2026-04-15 10:01 44.79090 17.59126 36204 ft 427 kts 292°
2026-04-15 10:01 44.81599 17.51526 36214 ft 427 kts 292°
2026-04-15 10:02 44.84091 17.43940 36219 ft 427 kts 292°
2026-04-15 10:02 44.86576 17.36340 36224 ft 426 kts 292°
2026-04-15 10:03 44.89062 17.28739 36217 ft 427 kts 292°
2026-04-15 10:03 44.91552 17.21131 36213 ft 427 kts 292°
2026-04-15 10:04 44.94025 17.13517 36213 ft 427 kts 292°
2026-04-15 10:04 44.96493 17.05881 36210 ft 427 kts 292°
2026-04-15 10:05 44.99074 16.98378 36202 ft 428 kts 294°
2026-04-15 10:05 45.01804 16.90892 36198 ft 428 kts 294°
2026-04-15 10:06 45.04517 16.83394 36198 ft 428 kts 294°
2026-04-15 10:06 45.07200 16.75853 36195 ft 429 kts 294°
2026-04-15 10:07 45.09867 16.68296 36203 ft 429 kts 294°
2026-04-15 10:07 45.12501 16.60800 36203 ft 428 kts 294°
2026-04-15 10:08 45.15153 16.53241 36203 ft 428 kts 294°
2026-04-15 10:08 45.17796 16.45677 36210 ft 428 kts 294°
2026-04-15 10:09 45.20441 16.38121 36211 ft 428 kts 294°
2026-04-15 10:09 45.23082 16.30555 36217 ft 428 kts 295°
2026-04-15 10:10 45.25713 16.22977 36206 ft 428 kts 295°
2026-04-15 10:10 45.28339 16.15403 36207 ft 428 kts 295°
2026-04-15 10:11 45.30946 16.07862 36209 ft 428 kts 295°
2026-04-15 10:11 45.33564 16.00251 36206 ft 428 kts 295°
2026-04-15 10:12 45.36174 15.92644 36213 ft 428 kts 295°
2026-04-15 10:12 45.38785 15.85022 36208 ft 428 kts 295°
2026-04-15 10:13 45.41388 15.77403 36210 ft 428 kts 294°
2026-04-15 10:13 45.43988 15.69768 36229 ft 428 kts 295°
2026-04-15 10:14 45.46579 15.62149 36231 ft 427 kts 294°
2026-04-15 10:14 45.49144 15.54563 36240 ft 427 kts 294°
2026-04-15 10:15 45.51710 15.46943 36236 ft 426 kts 294°
2026-04-15 10:15 45.54272 15.39333 36241 ft 426 kts 294°
2026-04-15 10:16 45.56825 15.31720 36241 ft 425 kts 294°
2026-04-15 10:16 45.59847 15.24450 36231 ft 426 kts 301°
2026-04-15 10:17 45.63031 15.17300 36237 ft 426 kts 301°
2026-04-15 10:17 45.66198 15.10141 36234 ft 426 kts 301°
2026-04-15 10:18 45.69365 15.02964 36239 ft 426 kts 301°
2026-04-15 10:18 45.72498 14.95833 36222 ft 426 kts 301°
2026-04-15 10:19 45.75671 14.88654 36223 ft 427 kts 302°
2026-04-15 10:19 45.79050 14.81647 36224 ft 428 kts 304°
2026-04-15 10:20 45.79635 14.80474 36223 ft 428 kts 304°